Chicago Midway, IL

5:21 PM CST on December 14, 2017 (GMT -0600)
Chicago-Midway

Weather History for KMDW - September, 2013

Change the Weather History Date:

Monday, September 16, 2013

  Actual Average Record
Temperature  
Mean Temperature 60 °F 66 °F  
Max Temperature 64 °F 75 °F 93 °F (1931)
Min Temperature 55 °F 57 °F 39 °F (1984)
Degree Days  
Heating Degree Days 5 2  
Month to date heating degree days 17 21  
Since 1 July heating degree days 21 26  
Cooling Degree Days 0 4  
Month to date cooling degree days 128 88  
Year to date cooling degree days 1024 998  
Growing Degree Days 10 (Base 50)    
Moisture  
Dew Point 48 °F    
Average Humidity 65    
Maximum Humidity 90    
Minimum Humidity 43    
Precipitation  
Precipitation T in 0.11 in 1.70 in (1980)
Month to date precipitation 0.32 1.81  
Year to date precipitation 25.26 28.36  
Sea Level Pressure  
Sea Level Pressure 30.29 in    
Wind  
Wind Speed 13 mph (NNE)    
Max Wind Speed 21 mph    
Max Gust Speed 25 mph    
Visibility 10 miles    
Events      
T = Trace of Precipitation, MM = Missing Value Source: NWS Daily Summary

Daily Weather History Graph

Daily Weather History Graph

Search for Another Location

Airport or City:

Trip Planner

Search our weather history database for the weather conditions in past years. The results will help you decide how hot, cold, wet, or windy it might be!

Date:

Astronomy

Sep. 16, 2013 Rise Set
Actual Time 6:32 AM CDT 6:58 PM CDT
Civil Twilight 6:04 AM CDT 7:26 PM CDT
Nautical Twilight 5:31 AM CDT 7:58 PM CDT
Astronomical Twilight 4:57 AM CDT 8:32 PM CDT
Moon 5:08 PM CDT (9/16) 3:16 AM CDT (9/16)
Length of Visible Light 13h 21m
Length of Day
12h 25m
Waxing Gibbous, 90% of the Moon is Illuminated
Sep 16
Waxing Gibbous
Sep 19
Full
Sep 26
Last Quarter
Oct 4
New
Oct 11
First Quarter

Hourly Weather History & Observations

Time (CDT) Temp. Dew Point Humidity Pressure Visibility Wind Dir Wind Speed Gust Speed Precip Events Conditions
12:51 AM 61.0 °F 57.9 °F 90% 30.16 in 7.0 mi NE 5.8 mph - 0.00 in   Overcast
1:03 AM 60.8 °F 57.2 °F 88% 30.16 in 7.0 mi NE 6.9 mph - N/A   Overcast
1:45 AM 62.6 °F 55.4 °F 77% 30.18 in 8.0 mi ENE 10.4 mph - N/A   Overcast
1:51 AM 61.0 °F 55.9 °F 83% 30.18 in 8.0 mi ENE 10.4 mph - N/A   Overcast
2:45 AM 62.6 °F 53.6 °F 72% 30.19 in 10.0 mi NNE 16.1 mph 25.3 mph 0.00 in   Overcast
2:51 AM 62.1 °F 54.0 °F 75% 30.19 in 10.0 mi NNE 18.4 mph 25.3 mph 0.00 in   Overcast
3:51 AM 61.0 °F 51.1 °F 70% 30.21 in 10.0 mi NNE 17.3 mph - N/A   Overcast
4:51 AM 61.0 °F 50.0 °F 67% 30.23 in 10.0 mi NNE 15.0 mph 25.3 mph N/A   Overcast
5:51 AM 60.1 °F 46.0 °F 60% 30.25 in 10.0 mi NNE 12.7 mph - N/A   Mostly Cloudy
6:23 AM 60.8 °F 48.2 °F 63% 30.26 in 10.0 mi NE 12.7 mph - N/A   Overcast
6:51 AM 57.9 °F 48.9 °F 72% 30.28 in 10.0 mi NNW 13.8 mph - N/A   Overcast
7:51 AM 55.0 °F 46.9 °F 74% 30.31 in 10.0 mi NNW 13.8 mph - N/A   Overcast
8:51 AM 55.0 °F 46.9 °F 74% 30.33 in 10.0 mi NNW 10.4 mph - N/A   Overcast
9:51 AM 59.0 °F 45.0 °F 60% 30.34 in 10.0 mi NNE 12.7 mph 19.6 mph N/A   Mostly Cloudy
10:09 AM 60.8 °F 46.4 °F 59% 30.35 in 10.0 mi NE 13.8 mph - N/A   Mostly Cloudy
10:51 AM 61.0 °F 44.1 °F 54% 30.35 in 10.0 mi NNE 15.0 mph - N/A   Mostly Cloudy
11:51 AM 62.1 °F 46.0 °F 56% 30.35 in 10.0 mi NE 17.3 mph - N/A   Scattered Clouds
12:51 PM 64.0 °F 46.0 °F 52% 30.35 in 10.0 mi NNE 15.0 mph - N/A   Scattered Clouds
1:51 PM 63.0 °F 46.0 °F 54% 30.35 in 10.0 mi NE 15.0 mph 19.6 mph N/A   Scattered Clouds
2:51 PM 63.0 °F 46.0 °F 54% 30.33 in 10.0 mi NNE 17.3 mph 20.7 mph N/A   Scattered Clouds
3:51 PM 62.1 °F 45.0 °F 53% 30.33 in 10.0 mi NNE 15.0 mph - N/A   Scattered Clouds
4:51 PM 61.0 °F 45.0 °F 56% 30.32 in 10.0 mi NNE 15.0 mph - N/A   Scattered Clouds
5:51 PM 60.1 °F 45.0 °F 57% 30.32 in 10.0 mi NNE 15.0 mph - N/A   Scattered Clouds
6:51 PM 57.9 °F 44.1 °F 60% 30.32 in 10.0 mi NNE 12.7 mph - N/A   Scattered Clouds
7:51 PM 57.0 °F 46.0 °F 67% 30.32 in 10.0 mi NNE 8.1 mph - N/A   Scattered Clouds
8:41 PM 57.2 °F 46.4 °F 67% 30.32 in 10.0 mi North 4.6 mph - N/A   Mostly Cloudy
8:51 PM 57.9 °F 46.9 °F 67% 30.32 in 10.0 mi North 4.6 mph - N/A   Mostly Cloudy
9:07 PM 57.2 °F 46.4 °F 67% 30.32 in 10.0 mi North 5.8 mph - N/A   Scattered Clouds
9:51 PM 57.9 °F 50.0 °F 75% 30.31 in 10.0 mi NE 8.1 mph - N/A   Partly Cloudy
10:51 PM 60.1 °F 50.0 °F 69% 30.31 in 10.0 mi East 9.2 mph - N/A   Scattered Clouds
11:51 PM 59.0 °F 48.9 °F 69% 30.32 in 10.0 mi East 8.1 mph - N/A   Scattered Clouds